GFSGBSN_925_temp_096.txt.gz
Temp
8 9 8 8 8 7 7 7 7 7 7 7 7 7 7 6 6 6 7 8 9 9 10 10 10 11 10 16 20 18 19 18 17 17 20 23 23 23 23 24 25 25 26 27 27 27 27
8 8 8 8 7 7 7 7 6 6 6 7 7 7 6 6 6 7 8 9 9 9 9 10 10 9 11 16 22 20 19 19 20 21 22 23 23 24 24 24 24 25 26 26 27 27 27
8 8 8 8 7 7 7 6 6 6 6 6 6 6 6 6 7 8 9 10 10 10 10 10 10 9 14 18 21 21 20 20 20 21 22 23 23 23 24 23 24 24 24 25 25 26 25
7 8 7 7 7 7 6 6 6 6 6 6 6 6 6 6 7 8 10 10 10 10 10 10 10 11 15 20 19 19 20 20 20 20 20 21 22 22 22 23 23 22 23 22 24 25 26
7 7 7 7 7 6 6 6 6 6 6 6 6 6 6 6 8 9 10 11 11 10 10 10 10 13 17 18 19 20 20 21 21 21 20 20 21 20 21 20 20 21 20 21 23 25 25
7 7 7 6 6 6 6 6 6 6 5 6 6 6 6 7 8 10 10 12 12 10 11 12 14 16 18 20 20 20 19 19 20 20 21 20 20 19 19 19 19 20 21 22 22 24 24
7 6 6 6 6 6 6 6 6 5 6 6 5 5 6 7 8 10 10 14 16 15 15 18 19 18 21 20 19 20 20 20 20 19 18 20 18 18 19 20 20 21 22 22 23 25 24
6 6 6 6 6 5 6 5 5 5 6 5 5 5 6 7 9 10 11 15 12 11 11 15 17 18 18 18 17 20 20 19 19 18 19 19 19 20 21 21 21 21 21 21 23 23 23
6 6 6 6 6 5 6 5 5 5 5 5 5 5 7 7 9 10 13 12 12 11 12 16 19 18 19 18 17 19 21 20 19 18 19 18 20 21 21 20 20 21 21 21 20 22 22
6 6 6 6 5 5 5 5 5 5 4 4 5 5 6 7 8 12 13 12 11 10 12 17 17 18 18 18 17 20 20 19 19 18 18 19 20 20 20 21 21 19 22 21 20 20 19
6 6 6 5 5 5 4 4 4 4 4 4 5 6 6 6 8 13 12 11 11 11 14 18 18 18 19 17 18 19 21 20 18 18 18 17 18 19 19 20 22 20 22 21 20 20 20
6 5 5 5 4 4 4 4 3 4 4 4 5 6 7 9 9 10 10 9 11 11 14 18 19 18 16 17 17 18 19 20 20 18 18 18 19 19 20 20 21 20 21 20 20 19 17
5 5 4 4 4 3 3 3 3 3 4 4 5 6 6 7 10 9 9 11 12 14 19 17 16 16 15 15 16 17 17 16 16 15 15 15 17 19 20 19 19 20 18 15 15 16 16
5 4 4 4 4 3 3 3 3 3 4 5 5 6 7 8 8 8 10 12 12 17 17 15 14 14 13 15 16 15 15 15 16 14 11 12 14 18 19 19 16 17 18 16 16 17 18
4 4 4 3 3 3 3 3 3 4 4 5 5 7 8 8 7 8 10 11 14 14 14 12 12 13 14 14 15 14 14 14 16 12 9 11 14 19 19 17 15 17 16 18 16 17 16
4 3 4 3 3 3 3 3 3 3 4 5 5 9 10 7 7 9 11 11 13 13 13 12 10 12 11 12 12 13 13 15 14 11 11 10 9 16 18 17 15 16 18 17 17 14 15
4 4 3 3 3 3 3 3 3 4 4 5 5 10 8 8 8 10 9 12 12 13 12 11 11 10 11 10 11 11 11 13 10 12 11 12 10 13 14 14 15 19 16 17 17 17 15
4 3 3 3 3 3 3 3 3 4 5 5 9 9 8 8 10 12 11 11 10 12 12 12 12 11 11 10 10 10 11 13 13 12 10 11 9 11 13 16 17 20 18 16 16 17 19
4 3 3 3 3 3 3 3 3 4 4 5 10 11 9 9 9 11 11 11 12 12 12 12 11 11 12 11 9 11 12 13 10 9 9 8 10 11 12 14 18 19 20 18 15 17 15
3 3 3 3 3 3 3 3 3 4 4 4 9 8 10 11 9 9 9 11 10 12 11 11 11 11 10 9 10 9 11 12 10 9 9 7 8 9 10 14 18 17 19 17 16 15 15
3 3 3 3 3 3 3 3 3 4 4 4 8 8 10 9 10 9 8 8 9 9 10 10 10 10 10 9 10 11 10 9 9 9 7 7 9 9 9 10 16 14 14 13 14 16 16
3 3 3 3 3 3 2 3 3 4 4 6 6 9 10 9 9 7 8 9 9 8 8 8 8 9 9 8 9 10 10 9 8 9 8 8 10 10 10 13 16 13 12 13 17 17 18
3 3 2 2 3 3 2 3 3 3 4 7 9 9 10 9 10 10 9 9 9 8 8 9 8 8 8 8 8 8 9 10 10 9 8 8 9 15 15 18 17 15 17 18 15 13 14
3 2 2 2 3 2 2 3 3 3 3 4 7 9 9 9 11 11 11 11 10 9 5 7 8 7 9 9 8 10 10 11 11 11 12 9 9 16 14 15 13 15 17 15 11 9 9
3 2 3 3 3 2 2 3 3 3 3 4 6 7 8 8 12 11 10 10 11 9 8 6 8 8 8 6 8 10 10 10 12 14 13 12 14 15 15 13 12 13 13 13 13 7 7
3 3 2 3 3 3 3 3 3 3 4 3 5 6 7 7 9 10 10 10 10 10 10 8 11 11 6 6 8 9 12 11 10 13 14 15 15 15 15 15 12 9 10 13 13 7 5
3 3 2 2 3 3 3 2 3 3 3 3 4 4 6 6 10 9 9 8 10 10 10 11 10 10 11 9 9 10 12 13 10 11 12 13 13 13 13 13 10 6 10 13 10 6 4
2 2 2 2 2 3 2 2 3 3 3 3 4 4 5 5 8 9 9 9 9 10 8 9 10 10 9 9 10 10 11 12 11 12 11 9 9 10 11 10 9 5 8 7 4 4 3
2 2 2 2 2 2 2 2 3 3 3 3 3 4 3 4 7 5 6 7 8 8 8 9 8 8 7 7 8 8 9 10 9 9 10 8 8 8 7 6 4 4 3 2 3 2 2

GFSGBSN_925_temp_099.txt.gz
Temp
10 10 10 9 9 8 8 8 7 7 7 7 7 7 7 6 6 6 7 8 8 9 10 11 9 8 10 12 14 19 19 19 18 18 17 18 19 19 18 20 20 21 21 23 23 24 24
10 10 9 9 8 8 8 7 7 7 7 7 7 7 6 6 7 8 9 9 10 10 10 10 10 9 8 12 19 20 20 19 19 19 19 19 19 20 20 20 19 21 22 22 23 23 23
10 9 9 8 8 8 7 7 7 7 7 7 7 6 6 6 7 8 9 10 10 10 9 10 9 8 10 13 20 19 19 19 19 19 18 20 20 19 19 19 21 21 20 21 22 21 21
9 9 8 8 8 8 7 7 7 7 6 6 7 6 6 6 7 9 10 10 10 10 10 10 9 9 10 17 18 19 19 20 20 20 20 20 20 17 18 18 19 19 18 18 21 22 22
9 9 8 8 8 7 7 7 7 7 6 6 6 6 6 7 8 9 10 11 11 11 11 10 9 9 13 18 18 19 20 20 19 20 20 20 19 17 17 16 15 16 16 17 19 21 21
9 8 8 8 7 7 7 6 6 6 6 6 6 6 6 7 8 10 10 12 14 10 11 10 10 11 13 18 20 19 19 19 18 18 17 17 16 15 14 13 14 15 15 17 18 20 20
9 9 8 7 7 6 6 6 6 6 6 6 6 6 6 7 9 10 10 11 12 10 11 13 14 15 17 19 18 19 19 19 18 17 14 15 15 14 14 15 16 16 16 17 18 20 20
9 8 7 7 6 6 6 6 6 6 5 5 5 6 7 8 9 10 11 11 12 10 8 13 13 14 16 17 17 17 19 18 17 15 15 14 14 17 17 17 17 17 16 16 18 20 20
8 8 7 6 6 6 6 6 6 6 5 5 5 6 7 7 9 11 11 12 11 11 8 13 16 17 18 18 16 17 18 18 16 16 16 15 16 19 18 18 17 17 17 17 18 19 19
8 7 7 6 6 6 5 6 5 5 5 5 5 6 6 8 8 10 12 11 11 10 7 15 17 18 18 18 16 19 19 17 17 16 16 15 17 17 17 17 18 17 19 19 19 19 16
7 6 6 6 6 6 6 5 5 4 4 4 5 6 7 6 7 10 10 10 11 10 11 17 17 18 19 17 17 18 18 17 15 15 16 15 15 16 15 16 18 17 19 18 19 19 17
7 6 6 6 6 5 5 4 4 4 4 4 5 6 6 8 8 9 9 10 10 10 11 17 17 17 16 16 15 16 16 16 16 15 16 15 17 15 15 16 17 18 18 17 15 16 14
6 6 6 5 5 4 4 4 4 3 3 4 5 6 6 7 8 8 9 9 9 10 18 15 14 14 13 13 14 15 14 13 12 12 12 13 14 15 16 15 16 16 16 12 12 13 13
6 6 5 4 4 4 4 4 3 3 4 5 5 6 7 8 8 8 9 8 9 15 13 13 12 13 12 14 14 14 13 12 14 12 10 10 10 13 15 13 13 15 16 12 13 13 15
5 4 4 4 3 3 3 3 3 3 4 5 6 7 7 8 8 8 7 7 11 12 12 11 11 11 12 12 11 11 11 11 13 11 9 9 10 12 13 14 15 13 12 14 12 15 13
4 4 3 3 3 3 3 3 2 3 3 4 5 7 8 8 8 8 7 9 12 12 12 11 10 11 9 10 10 10 10 12 11 11 10 9 8 12 15 13 14 15 15 12 12 13 14
3 3 3 3 3 3 3 3 3 3 4 5 5 6 8 8 8 7 6 9 12 12 12 11 10 10 10 9 10 9 10 11 10 11 11 10 9 10 12 13 13 11 12 12 14 15 14
4 3 3 3 3 3 3 3 3 3 4 5 6 5 8 8 6 7 6 11 11 11 12 11 11 11 10 9 9 9 9 10 12 10 9 8 7 8 11 14 13 14 12 14 11 15 16
3 3 3 3 3 3 3 3 3 4 4 5 5 6 8 8 5 5 11 11 12 11 11 11 10 10 10 9 7 9 9 11 9 9 8 7 8 7 10 13 14 14 15 15 15 12 14
3 3 3 3 3 3 3 3 3 3 4 5 5 5 6 6 6 8 7 9 9 11 10 10 9 9 9 8 9 8 8 10 9 8 10 7 7 8 8 12 12 10 12 16 15 13 13
3 3 3 3 3 3 3 3 3 4 4 5 4 6 8 5 5 6 7 7 8 8 9 9 9 8 8 7 7 7 8 7 9 9 9 6 8 8 9 10 10 10 11 12 12 11 12
3 3 3 3 3 3 3 3 4 4 5 5 3 6 7 5 6 5 7 7 8 8 7 7 7 7 7 6 8 6 7 7 7 7 7 7 8 9 10 11 11 11 12 10 9 10 10
3 3 3 3 3 3 3 3 4 4 4 6 8 9 6 7 7 5 6 8 8 6 7 9 7 7 7 8 6 6 7 7 7 7 7 8 8 10 10 11 12 11 10 10 8 8 9
3 3 3 3 3 3 3 3 3 4 4 4 6 6 4 5 7 9 10 10 9 7 3 7 7 6 8 8 7 8 7 7 8 9 10 8 9 10 11 13 11 9 10 8 7 6 6
3 2 3 3 3 3 3 3 3 4 4 4 5 5 4 4 8 10 10 9 9 8 4 5 6 7 7 6 7 8 9 9 10 11 11 9 9 11 12 11 10 10 8 7 9 5 5
2 2 3 3 3 3 3 3 3 4 4 4 5 6 4 2 5 9 8 9 7 5 7 8 8 8 6 6 7 8 10 9 10 12 14 13 11 11 12 10 9 7 6 8 8 4 4
3 3 2 3 3 3 3 3 3 3 4 4 4 5 5 2 6 6 6 6 8 6 6 7 7 7 8 6 8 8 9 11 9 9 9 9 9 8 9 9 8 4 5 8 4 4 2
3 3 2 2 3 3 3 3 3 3 3 4 4 4 4 3 3 7 7 6 5 5 3 5 5 6 5 5 6 7 8 8 8 9 9 7 7 7 7 7 7 3 5 4 4 2 2
3 2 2 2 2 3 2 3 3 3 3 4 4 3 4 2 3 5 6 6 6 7 5 5 5 6 4 4 5 5 7 7 8 7 9 6 7 6 5 4 2 2 1 1 1 1 0

GFSGBSN_925_temp_102.txt.gz
Temp
12 11 11 11 10 9 9 8 8 8 8 8 8 8 8 7 7 7 8 8 9 9 9 9 8 8 9 10 12 19 19 19 19 18 17 17 17 17 17 17 18 17 19 19 20 20 20
13 12 11 10 10 9 9 8 8 8 8 8 7 8 7 7 8 8 9 8 9 9 10 9 9 9 8 11 18 19 18 18 18 18 17 17 17 18 17 17 17 19 19 19 19 19 20
13 13 11 10 9 9 9 8 8 8 8 8 7 7 7 7 7 8 9 8 10 10 10 9 9 8 8 11 18 18 17 18 19 19 17 19 18 18 16 16 18 18 17 18 19 18 19
13 12 11 10 9 9 8 8 8 7 7 7 7 7 7 7 7 8 8 9 10 10 10 10 9 8 8 16 17 16 18 18 19 19 19 20 19 17 17 17 16 16 16 15 19 19 19
13 12 11 10 9 9 8 8 7 7 7 7 7 7 6 7 8 9 10 11 11 11 11 10 9 8 10 15 17 19 18 19 19 19 19 19 18 16 17 15 13 14 15 15 17 19 18
13 11 11 10 9 8 8 7 7 7 6 6 6 6 7 7 8 9 10 11 12 11 10 9 9 9 12 17 18 19 19 19 18 18 17 17 14 14 12 12 12 14 13 13 14 18 17
13 12 11 9 8 8 7 7 6 6 6 6 6 6 7 7 8 9 9 11 10 10 10 10 11 12 16 16 17 18 18 18 17 16 14 14 12 11 13 13 15 15 14 14 15 17 17
13 12 10 9 8 8 7 6 6 6 6 6 6 6 6 7 9 10 9 10 11 10 8 11 11 12 14 14 14 16 18 16 16 14 15 13 12 13 15 14 14 14 14 14 15 16 16
12 12 10 9 8 8 6 6 6 6 6 6 6 6 6 7 9 10 11 11 11 11 7 11 13 14 15 15 15 16 17 17 16 14 14 13 15 16 16 15 15 15 14 15 15 17 17
12 11 10 9 8 7 6 6 6 6 5 6 6 6 6 7 8 9 10 10 11 10 9 14 15 17 17 17 15 18 17 16 15 14 14 13 15 16 15 15 15 14 16 16 16 16 14
11 11 9 8 7 6 6 6 5 5 5 5 6 6 6 6 7 8 9 10 10 10 13 16 16 18 17 16 15 16 17 15 14 13 14 13 13 13 13 14 15 14 15 15 16 15 12
11 9 8 7 6 6 6 6 5 4 5 5 5 6 7 7 6 8 9 10 10 10 13 16 15 14 13 14 14 15 14 14 14 13 13 13 14 13 13 14 14 15 14 15 15 12 11
10 8 7 7 6 6 5 5 5 5 5 5 5 6 7 7 7 8 9 9 10 11 15 13 12 12 12 12 13 12 12 11 11 10 10 12 12 13 14 12 13 14 13 11 10 11 12
8 8 7 6 6 5 5 5 4 4 4 4 5 6 7 7 8 8 9 8 10 13 12 12 11 12 12 11 11 11 10 9 11 10 9 8 9 12 12 12 11 11 11 11 11 12 14
7 6 6 6 5 4 5 4 4 3 3 4 6 7 7 7 8 8 7 6 10 12 11 10 11 10 10 10 10 9 9 9 10 10 8 8 9 11 12 12 12 12 11 13 12 13 13
6 6 4 4 4 4 4 3 3 3 3 5 6 6 7 7 8 8 6 9 10 12 12 11 9 10 8 9 9 8 9 10 10 10 9 9 7 11 12 12 12 12 15 10 10 11 12
4 4 3 4 3 3 3 3 3 3 4 5 6 5 7 7 8 6 6 8 11 12 12 11 10 9 9 8 9 8 9 10 9 10 10 9 8 9 10 12 12 11 11 12 12 12 13
4 3 3 3 3 3 3 3 3 3 4 5 5 5 8 8 6 6 6 10 11 11 12 11 10 10 9 8 7 7 8 9 9 9 8 7 6 7 9 11 13 12 11 12 10 13 13
3 3 3 3 3 3 3 3 3 3 5 5 5 5 8 8 4 4 9 11 11 10 10 9 9 8 9 7 6 7 8 9 9 9 8 8 6 7 8 12 12 11 11 11 12 10 13
3 3 3 3 3 3 3 3 3 3 5 6 4 3 4 5 4 7 7 8 9 10 9 8 8 8 7 6 8 6 7 8 9 8 10 7 6 7 8 11 11 10 10 10 12 11 11
3 3 3 3 3 3 3 3 3 4 5 5 2 4 6 4 5 6 6 7 7 8 8 8 7 7 6 6 6 6 7 5 6 8 8 6 8 8 7 9 10 10 10 10 10 10 10
3 3 3 3 3 3 2 3 4 5 5 5 3 5 5 4 6 5 7 7 7 8 7 6 6 6 6 5 6 5 6 6 6 7 7 7 8 8 8 9 9 9 9 8 9 8 8
3 3 3 3 3 3 3 3 4 5 5 5 6 6 4 6 5 4 4 7 7 5 7 7 7 6 6 7 7 7 6 7 7 6 6 6 7 9 10 10 10 9 7 7 6 6 7
3 3 3 3 3 3 3 4 4 5 6 5 5 4 3 4 6 7 9 8 8 6 3 7 7 6 7 8 7 7 6 6 6 6 7 7 8 9 10 10 9 7 6 7 5 5 5
3 3 3 3 3 2 3 3 4 5 5 5 5 4 3 4 6 8 8 8 7 6 3 3 6 6 6 6 6 7 8 8 9 8 8 7 8 9 10 10 8 8 6 4 6 4 3
3 3 3 3 3 2 3 3 4 4 5 5 5 5 3 3 4 7 6 7 5 4 5 7 7 6 6 5 6 7 9 9 9 9 11 9 9 9 10 9 9 5 4 6 6 3 2
3 3 3 3 3 3 3 3 4 4 5 5 4 5 4 1 4 5 5 5 6 5 4 4 5 6 6 4 5 6 8 8 8 8 8 8 8 7 8 8 7 2 4 7 5 3 1
3 3 3 3 3 3 3 3 4 4 5 5 4 4 4 -2 2 5 6 5 4 3 1 4 4 4 4 4 6 6 7 7 7 7 7 7 6 6 7 7 7 1 4 4 2 1 0
3 3 3 3 3 3 3 3 3 4 4 4 3 3 4 1 2 4 5 6 5 6 3 3 5 4 2 4 5 5 6 6 6 7 7 6 5 5 4 3 1 1 0 -0 0 0 -0

GFSGBSN_925_temp_105.txt.gz
Temp
13 13 12 12 11 10 10 10 9 9 9 8 9 9 9 9 8 8 9 9 11 8 9 10 9 9 9 10 12 18 17 17 17 18 17 16 16 17 16 16 16 16 17 17 18 18 18
13 13 13 12 11 11 10 10 9 9 9 8 8 8 8 8 7 8 8 10 11 10 9 9 9 8 8 10 17 17 16 17 17 17 17 16 17 17 16 16 16 17 16 16 17 17 17
14 14 13 13 11 11 10 10 9 9 9 8 8 8 8 7 7 8 8 9 11 10 10 9 9 7 8 11 17 16 16 17 18 18 17 18 17 17 17 15 17 16 16 17 18 17 17
14 13 13 13 13 11 10 10 9 9 8 8 8 8 7 7 7 8 8 9 11 11 10 9 9 7 8 15 15 16 17 18 18 18 18 18 17 16 16 16 15 15 15 15 17 17 18
13 13 13 13 12 11 10 10 9 9 8 8 8 7 7 7 8 8 8 10 10 10 11 9 8 8 8 15 14 18 17 17 18 18 18 19 17 15 16 14 11 13 13 13 15 16 17
13 13 13 12 12 11 10 10 9 8 7 7 7 7 7 7 8 7 9 10 10 9 9 8 9 9 11 16 17 18 18 18 18 17 16 16 12 13 11 12 10 12 12 11 12 14 15
13 13 13 12 12 11 10 9 9 8 7 7 6 6 6 7 8 8 10 10 9 9 9 9 10 11 13 14 17 17 16 17 16 15 14 14 12 12 13 13 13 13 13 13 14 15 14
12 12 12 12 12 11 10 9 8 7 7 6 6 6 7 7 8 8 8 8 10 9 8 9 10 10 12 13 12 15 17 15 14 13 14 13 11 13 14 13 13 13 12 12 13 15 14
11 11 12 12 12 11 9 8 8 7 7 6 5 6 7 7 8 9 9 10 10 10 7 10 11 12 13 13 12 14 16 15 15 14 13 12 14 15 14 14 13 13 12 13 13 14 14
11 11 11 11 12 11 9 8 7 6 6 6 6 6 7 7 8 8 9 10 10 10 8 13 13 15 16 16 15 16 17 16 15 14 13 12 14 13 12 13 14 12 14 14 13 13 12
11 11 11 11 11 10 8 8 6 6 6 5 6 6 7 7 7 7 9 10 10 9 12 15 15 16 15 15 15 15 15 14 14 13 13 12 12 12 11 12 13 13 13 13 13 12 12
11 12 11 11 11 9 8 7 6 6 5 5 5 6 6 6 7 8 9 10 9 9 11 13 13 13 14 14 13 12 12 13 13 13 12 12 13 13 12 13 13 13 12 13 12 12 11
11 11 11 11 9 8 7 6 6 5 5 5 5 6 6 6 7 8 9 8 9 9 14 11 11 12 11 11 12 11 11 10 10 9 9 10 11 12 13 11 11 11 11 8 7 9 11
10 11 10 10 9 7 6 6 5 5 5 5 5 5 6 7 7 8 9 7 9 12 11 12 11 12 10 10 10 10 9 8 10 9 7 7 9 11 10 11 10 10 10 9 10 10 11
10 10 10 8 7 6 6 5 5 4 4 5 5 5 6 7 7 8 6 5 10 11 11 11 11 10 10 10 10 9 8 8 9 9 7 8 8 10 10 11 11 10 8 11 10 11 10
10 10 8 7 6 6 5 4 4 5 5 5 5 6 7 7 7 7 5 9 10 11 11 11 10 10 8 9 8 8 8 9 9 9 9 8 7 10 11 11 11 11 12 8 9 10 10
9 8 7 6 5 5 4 4 4 4 4 5 6 5 7 7 7 5 5 8 10 11 11 11 9 9 9 8 8 8 8 9 8 9 8 8 7 9 9 9 9 10 10 10 10 11 10
8 6 5 5 4 4 3 4 4 4 4 5 5 5 7 7 5 5 6 10 11 11 11 10 10 9 8 7 7 7 7 8 9 9 7 8 5 6 8 10 11 11 10 10 10 11 12
5 4 4 4 3 3 4 3 3 3 4 6 4 5 7 7 4 5 8 10 10 9 9 8 8 8 8 7 6 7 7 9 8 8 8 7 6 5 8 10 10 9 9 9 10 11 11
4 3 4 3 3 2 3 3 3 4 5 5 3 3 5 5 4 7 7 8 8 9 8 8 8 7 7 6 6 5 6 7 7 7 9 8 5 6 7 9 11 8 8 9 9 11 9
4 3 3 3 3 3 3 3 3 4 5 5 3 4 6 4 5 6 6 7 7 7 8 8 7 7 6 5 6 5 6 4 6 7 7 7 7 7 7 8 8 8 8 9 9 10 9
3 3 3 3 3 3 2 2 4 5 5 5 4 5 4 4 5 5 6 6 7 8 7 6 6 6 5 5 6 5 6 5 5 6 7 6 6 7 7 8 8 7 6 7 7 7 7
3 2 2 3 3 3 3 3 4 5 5 4 4 6 5 6 5 5 4 6 6 5 7 7 6 6 5 6 7 7 7 7 7 6 5 6 6 7 9 9 8 5 5 5 5 5 6
3 3 3 3 3 2 3 4 4 5 6 6 5 4 3 4 6 6 7 7 7 6 3 7 6 6 7 7 5 6 5 6 6 6 6 6 6 7 9 9 8 6 5 5 4 3 3
3 3 3 3 3 3 3 4 5 6 7 7 5 5 4 4 6 7 8 7 6 5 3 3 6 6 5 5 6 6 6 7 7 7 7 6 7 9 10 8 7 7 5 4 5 3 2
3 3 3 3 2 3 4 4 5 6 6 7 5 6 3 4 4 6 6 6 5 3 5 6 6 6 6 5 6 7 8 7 9 9 8 8 7 9 9 9 8 5 3 4 5 2 1
3 3 3 2 2 3 4 4 5 5 6 7 4 6 4 2 4 5 5 5 4 4 3 4 5 5 5 3 7 6 8 8 7 7 7 7 7 7 8 8 5 1 2 5 4 3 0
3 3 3 3 3 3 4 4 4 5 5 7 3 5 4 0 3 5 6 4 4 2 2 4 3 4 3 4 6 5 5 6 6 6 6 6 6 5 7 7 6 1 3 4 2 0 -1
3 3 3 3 3 3 3 4 4 5 5 6 4 4 5 1 2 4 5 5 5 5 2 3 3 3 1 3 4 5 5 4 4 4 5 5 4 4 3 2 0 -0 -0 -0 0 -1 -2